204P/LINEAR-NEAT (2022)

Japanese version
Home page
Updated on November 26, 2022

---------------------------------------------------------------------

* Profile

* Pictures

* Orbital Elements

Epoch 2022 Aug. 9.0 TT = JDT 2459800.5
T 2022 Nov. 16.86022 TT                                 Rudenko
q   1.8343987            (2000.0)            P               Q
n   0.14543283     Peri.  356.64458     -0.26162643     -0.95900193
a   3.5811932      Node   108.50020     +0.88817836     -0.28339158
e   0.4877688      Incl.    6.59622     +0.37774436     +0.00212316
P   6.78
From 1281 observations 2001 Oct. 13-2022 Aug. 23, mean residual 0".7.
     Nongravitational parameters A1 = +0.22, A2 = -0.0208.

* Finding Charts

* Magnitudes Graph

        m1 = 9.5 + 5 log d + 25 log r(t - 50)

---------------------------------------------------------------------

The orbital elements are published on M.P.E.C. 2022-Q139.
The charts are made with StellaNavigator Ver.10 (AstroArts).
The magnitudes graphs are made with Comet for Windows.

---------------------------------------------------------------------

Copyright(C) Seiichi Yoshida (comet@aerith.net). All rights reserved.